Location: Pascuales
(41.0538°N, 4.3810°W)
Time: 02:06:02
(UTC+00:00)

Daily predictions for brighter satellites

Satellite Brightness Start Highest point End
(mag) Time Altitude Azimuth Time Altitude Azimuth Time Altitude Azimuth
USA 267 3.8 03:30:37 10° NE 03:35:57 48° N 03:35:57 48° N
Cosmos 2344 3.3 03:46:42 86° SW 03:46:51 89° WNW 03:54:38 10° NE
Cosmos 2251 Rocket 4.1 03:53:53 54° E 03:53:53 54° E 03:58:41 10° NNE
CENTAUR R/B 3.9 03:45:43 10° NNW 03:53:37 51° NE 04:02:12 10° ESE
ISS -0.5 04:00:40 13° NE 04:00:40 13° NE 04:01:24 10° NE
H-2A R/B 4.5 03:52:49 42° SW 03:59:39 56° S 04:06:53 10° ESE
Cosmos 2360 Rocket 3.7 04:04:23 24° SSE 04:04:23 24° SSE 04:06:34 10° SSE
ALOS 3.8 04:00:45 10° NNE 04:04:59 33° E 04:07:02 23° SE
PAYLOAD A 4.2 04:00:01 10° NNE 04:05:04 75° ENE 04:05:04 75° ENE
USA 234 3.1 04:03:06 10° SE 04:09:38 88° SW 04:11:34 50° NW
CZ-4C R/B 2.7 04:10:13 41° SE 04:10:52 44° ESE 04:16:06 10° NE
Cosmos 883 Rocket 4.4 04:11:11 51° S 04:12:51 81° E 04:18:59 10° N
PSLV R/B 4.0 04:13:20 10° NNE 04:17:21 61° ENE 04:17:21 61° ENE
NOSS 3-4 (A) 4.1 04:16:30 32° S 04:18:48 48° ESE 04:24:38 10° NE
NOSS 3-4 (C) 4.1 04:16:34 31° S 04:18:55 48° ESE 04:24:45 10° NE
Lacrosse 5 2.2 04:19:25 50° N 04:20:27 62° NE 04:25:27 10° ESE
NOSS 3-2 (C) 4.4 04:17:08 10° NNW 04:24:44 66° NE 04:33:17 10° SE
GPS 2-04 Rocket1 4.5 04:26:32 23° SE 04:26:32 23° SE 04:28:24 10° ESE
Cosmos 2333 Rocket 2.6 04:24:03 10° NNW 04:29:48 65° ENE 04:35:31 10° SE
ATLAS 2AS CENTAUR R/B 3.8 04:26:24 10° S 04:33:51 48° ESE 04:41:18 10° NE
Cosmos 1484 Rocket 3.5 04:30:58 10° NNE 04:34:35 49° E 04:35:27 40° SE
Delta 2 Rocket 4.3 04:35:05 42° S 04:35:05 42° S 04:39:27 10° ESE
Cosmos 1805 Rocket 3.6 04:30:25 10° N 04:34:54 82° E 04:39:21 10° S
Landsat 5 3.6 04:31:32 10° SSE 04:35:18 65° ENE 04:39:11 10° N
Cosmos 2315 Rocket 3.8 04:34:41 27° SSW 04:38:13 79° W 04:44:27 10° N
CZ-2C R/B 2.7 04:37:31 10° N 04:41:25 46° NW 04:41:25 46° NW
Cosmos 2219 Rocket 2.4 04:38:46 10° NNW 04:44:27 73° ENE 04:50:07 10° SSE
Cosmos 1606 4.1 04:47:57 27° NNW 04:47:57 27° NNW 04:49:58 10° N
Cosmos 1140 Rocket 4.2 04:42:27 10° S 04:47:29 53° ESE 04:52:32 10° NNE
CBERS 1 LM4 rocket 4.4 04:45:02 10° NNE 04:49:48 74° ESE 04:54:26 10° S
Sich 1 2.9 04:47:07 10° N 04:51:33 87° W 04:55:55 10° S
METEOR-M 4.1 04:50:30 10° NNE 04:55:52 83° ESE 05:01:12 10° SSW
Cosmos 1666 Rocket 3.9 04:54:20 10° N 04:58:42 66° E 05:03:04 10° SSE
SeaSat 1 3.8 04:55:54 10° SE 05:00:29 40° NE 05:05:05 10° NNW
BREEZE M DEB (TANK) 3.7 04:59:34 20° NNW 05:00:59 28° NNE 05:06:11 10° E
COSMOS 2428 2.7 04:55:23 10° NNW 05:01:07 83° ENE 05:06:51 10° SSE
ATLAS 5 CENTAUR R/B 1.2 05:00:50 47° SW 05:01:54 79° NW 05:06:13 10° NNE
BREEZE-M DEB (TANK) 4.3 05:00:37 24° NW 05:01:54 28° NNW 05:04:30 10° NE
USA 238 DEB 3.9 04:57:41 10° NW 05:04:54 62° WSW 05:12:21 10° SSE
USA 238 3.9 04:57:48 10° NW 05:05:00 63° WSW 05:12:28 10° SSE
BREEZE-M DEB (TANK) 3.4 05:08:11 29° SSW 05:08:11 29° SSW 05:11:25 10° SSE
ATLAS 3B R/B 4.4 05:02:10 10° NNW 05:08:22 33° NE 05:14:47 10° ESE
CZ-4B R/B 4.0 05:06:45 10° NNE 05:10:25 66° ESE 05:14:00 10° S
ADEOS 3.7 05:05:55 10° NNE 05:11:10 76° ESE 05:16:22 10° S
Cosmos 1602 4.1 05:08:30 10° N 05:12:24 67° E 05:16:16 10° SSE
H-2A R/B 1.9 05:12:41 10° S 05:16:54 69° WSW 05:21:03 10° NNW
FENGYUN 3A 3.9 05:11:46 10° N 05:16:58 48° WNW 05:21:40 12° SW
Cosmos 1151 Rocket 2.9 05:13:38 10° S 05:17:57 80° W 05:22:15 10° N
Cosmos 909 Rocket 4.3 05:14:58 22° WSW 05:19:03 50° NW 05:25:09 10° NNE
Cosmos 2219 4.4 05:14:12 10° S 05:19:33 45° ESE 05:24:53 10° NE
Meteor 1-25 Rocket 4.1 05:14:31 10° NNW 05:20:03 72° W 05:25:34 10° S
Cosmos 2322 4.0 05:16:07 10° NW 05:21:29 44° WSW 05:26:47 10° S
SWAS 4.5 05:19:31 10° NNW 05:23:46 56° WSW 05:27:59 10° S
NOSS 0 Rocket 4.1 05:18:47 10° NNW 05:24:59 75° ENE 05:31:10 10° SSE
Cosmos 2184 Rocket 4.0 05:20:14 10° N 05:26:37 87° W 05:33:00 10° S
SKYMED 2 3.8 05:24:11 10° SSE 05:28:30 76° ENE 05:32:51 10° N
CZ-2C R/B 4.1 05:27:38 10° S 05:29:03 11° SSE 05:30:29 10° SE
Cosmos 1633 Rocket 2.9 05:25:25 10° NNW 05:29:48 67° W 05:34:07 10° S
Cosmos 1242 Rocket 3.8 05:29:54 10° SSE 05:33:09 42° E 05:36:29 10° NNE
H-2A R/B 3.5 05:31:43 10° NNE 05:35:34 56° E 05:39:22 10° S
Cosmos 1933 4.2 05:33:59 17° SW 05:36:15 28° WNW 05:39:46 10° NNW
ISS -3.0 05:33:39 12° NW 05:36:35 51° NNE 05:39:51 10° ESE
Milstar 3 Cent rocket 3.7 05:33:45 12° SW 05:36:37 18° S 05:39:52 10° SE
Cosmos 1812 3.4 05:34:35 10° S 05:38:21 57° E 05:42:07 10° NNE
OAO 3 Rocket 4.0 05:37:56 17° WSW 05:41:15 38° S 05:45:42 10° ESE
ALOS 3.3 05:38:27 10° NNW 05:42:13 25° WNW 05:45:33 12° WSW
CENTAUR R/B 3.5 05:36:35 10° NW 05:44:30 47° WSW 05:52:52 10° S
CSL-04 DEB 4.2 05:40:43 10° S 05:44:40 75° WSW 05:48:36 10° NNW
Cosmos 1954 Rocket 4.0 05:40:52 10° SSW 05:46:08 84° WNW 05:51:25 10° NNE
RESURS DK-1 2.7 05:42:31 10° SSW 05:46:35 67° ESE 05:50:41 10° NNE
Meteor 1-31 Rocket 3.1 05:43:27 10° N 05:47:06 41° WNW 05:50:42 10° SW
Meteor 1-14 Rocket 4.3 05:42:06 10° N 05:47:48 84° W 05:53:36 10° S
USA 276 4.2 05:48:17 10° NW 05:50:32 18° N 05:52:48 10° NE
Cosmos 407 Rocket 4.1 05:47:24 10° SW 05:52:05 34° WNW 05:56:47 10° N
Cosmos 2237 Rocket 2.4 05:46:36 10° NNW 05:52:19 80° ENE 05:57:57 10° SSE
USA 234 4.3 05:48:16 10° S 05:53:10 22° WSW 05:58:05 10° WNW
Timation 2 Rocket 4.3 05:50:06 10° SSW 05:56:59 86° ESE 06:03:47 10° NNE
PSLV R/B 4.4 05:54:45 10° SSE 05:58:54 67° ENE 06:03:02 10° N
CZ-4C R/B 3.1 05:55:25 11° W 05:59:33 29° NW 06:04:42 10° NNE
Meteor 2-6 Rocket 4.4 05:54:18 10° S 06:00:16 89° WNW 06:06:09 10° N
Cosmos 1328 Rocket 4.2 05:56:33 10° SW 06:00:25 32° WNW 06:04:18 10° NNW
Cosmos 1515 Rocket 3.6 05:58:19 10° SSW 06:02:34 55° W 06:06:53 10° N
Lacrosse 5 3.1 05:59:10 10° WNW 06:03:01 22° WSW 06:06:51 10° S
Nadezhda 1 Rocket 4.0 05:57:20 10° SSW 06:03:21 60° W 06:09:31 10° N
GPS 2-04 Rocket1 3.8 06:00:45 10° WSW 06:04:00 29° S 06:07:23 10° SE
Meteor PRIRODA 3.8 06:04:03 10° N 06:07:42 54° WNW 06:11:21 10° SSW
Cosmos 1689 Rocket 2.8 06:04:58 10° SSE 06:07:43 54° ENE 06:10:30 10° N
Cosmos 2227 Rocket 2.2 06:02:32 10° SSW 06:08:13 87° WNW 06:13:55 10° NNE
Cosmos 1437 Rocket 4.1 06:05:22 10° SW 06:08:33 22° WNW 06:11:44 10° NNW
Cosmos 1666 3.0 06:05:49 10° N 06:09:39 72° E 06:13:28 10° SSE
NOSS 3-4 (A) 4.2 06:04:37 10° WSW 06:09:52 32° NW 06:15:28 10° NNE
NOSS 3-4 (C) 4.2 06:04:43 10° WSW 06:09:57 32° NW 06:15:34 10° NNE
Cosmos 2341 Rocket 4.4 06:04:41 10° N 06:10:55 73° E 06:17:06 10° SSE
Cosmos 676 Rocket 4.2 06:05:46 10° SW 06:10:56 52° WNW 06:16:06 10° N
Lacrosse 5 rocket 4.4 06:08:26 10° SSE 06:11:05 16° ESE 06:13:47 10° E
CZ-4B R/B 2.0 06:08:55 10° SSW 06:11:41 29° W 06:14:25 10° NW
SJ-7 4.4 06:09:02 10° N 06:13:04 82° WNW 06:17:07 10° SSW
Cosmos 2333 Rocket 3.6 06:09:45 10° WNW 06:13:27 18° W 06:17:10 10° SW
CZ-4B R/B 3.4 06:09:05 10° N 06:13:28 50° WNW 06:17:48 10° SSW
Cosmos 1470 Rocket 4.0 06:10:29 10° NNW 06:14:29 37° W 06:18:27 10° SSW
Meteor 1-10 Rocket 4.4 06:09:23 10° S 06:15:19 86° WNW 06:21:11 10° N
SL-16 R/B 3.5 06:09:57 10° NNW 06:15:23 44° ENE 06:20:48 10° SE
CZ-3 R/B 3.3 06:09:16 10° WSW 06:22:51 33° S 06:27:53 10° SE
